Flag for Brazil Weather past 2 weeks in Curitiba, Paraná, Brazil

Now
52 °F

Clear.


Feels Like: 51 °F
Forecast: N/A
Wind: 5 mph from Southwest

Location: Curitiba Aeroporto

Current Time: Jul 4, 2015 at 6:47:54 PM

Latest Report: Jul 4, 2015 at 6:00 PM


Visibility: 10 mi

Pressure: 30.15 "Hg (27.01 "Hg at 915m altitude)

Humidity: 47%

Dew point: 32 °F

Location of CuritibaLocation

Historic Weather in Curitiba — Graph

°F

Curitiba temperature yesterday

Maximum temperature yesterday: 64 °F (at 1:00 PM)
Minimum temperature yesterday: 55 °F (at 12:00 AM)
Average temperature yesterday: 59 °F

Past Weeks' High & Low Weather Summary

 TemperatureHumidityPressure
High77 °F (Jun 23, 1:00 PM)100% (Jun 21, 9:00 AM)30.57 "Hg (Jun 21, 9:00 AM)
Low43 °F (Jun 19, 9:00 PM)31% (Jun 22, 1:00 PM)29.92 "Hg (Jul 3, 2:00 PM)
Average56 °F84%30.29 "Hg
* Reported Jun 19 5:00 PM — Jul 4 5:00 PM, Curitiba, Weather by CustomWeather, © 2015

Note: Actual official high and low records may vary slightly from our data, if they occured in-between our weather recording intervals... More about our weather records

Advertising

Curitiba weather history for previous 24 hours

 ConditionsComfort  
Time TempWeatherWind HumidityBarometerVisibility
5:00 PM
Sat, Jul 4
54 °FClear.3 mph51%30.12 "Hg10 mi
4:00 PM55 °FSunny.6 mph44%30.12 "Hg10 mi
3:00 PM55 °FSunny.8 mph41%30.09 "Hg10 mi
2:00 PM55 °FPassing clouds.12 mph41%30.09 "HgN/A
1:00 PM55 °FPassing clouds.9 mph51%30.12 "HgN/A
12:00 PM55 °FPassing clouds.13 mph63%30.12 "HgN/A
11:00 AM55 °FPassing clouds.13 mph63%30.12 "HgN/A
10:00 AM55 °FScattered clouds.12 mph72%30.09 "HgN/A
9:00 AM54 °FBroken clouds.13 mph77%30.09 "HgN/A
8:00 AM54 °FPartly sunny.10 mph82%30.07 "HgN/A
7:00 AM54 °FBroken clouds.9 mph88%30.04 "HgN/A
6:00 AM54 °FPassing clouds.12 mph94%30.01 "HgN/A
5:00 AM57 °FPassing clouds.14 mph88%29.98 "HgN/A
4:00 AM61 °FPassing clouds.5 mph88%29.98 "HgN/A
3:00 AM61 °FPassing clouds.14 mph88%29.98 "HgN/A
2:00 AM61 °FPassing clouds.12 mph88%29.98 "HgN/A
1:00 AM61 °FPassing clouds.12 mph88%29.98 "HgN/A
12:00 AM61 °FPassing clouds.14 mph88%29.98 "HgN/A
11:00 PM
Fri, Jul 3
59 °FPassing clouds.8 mph88%29.98 "HgN/A
10:00 PM59 °FPassing clouds.9 mph88%29.98 "HgN/A
9:00 PM59 °FPassing clouds.6 mph88%29.95 "HgN/A
8:00 PM61 °FPassing clouds.7 mph83%29.92 "HgN/A
7:00 PM61 °FPassing clouds.10 mph83%29.92 "HgN/A
6:00 PM61 °FPassing clouds.14 mph83%29.95 "HgN/A
Weather by CustomWeather, © 2015

See weather overviewHow to use our weather pages